timestamp,surface_pressure_avg,surface_temp_avg,battery_voltage,lat,long
2018-03-23 00:00:00+00:00,274.0197,1.39,12.73,47.84626,-54.09684
2018-03-23 00:10:00+00:00,280.6714,1.37,12.73,47.84626,-54.09684
2018-03-23 00:20:00+00:00,304.1297,1.4,12.81,47.84626,-54.09684
2018-03-23 00:30:00+00:00,306.5297,1.4,12.81,47.84626,-54.09684
2018-03-23 00:40:00+00:00,297.7147,1.4,12.81,47.84626,-54.09684
2018-03-23 00:50:00+00:00,318.3929,1.4,12.81,47.84626,-54.09684
2018-03-23 01:00:00+00:00,335.6313,1.4,12.73,47.84626,-54.09684
2018-03-23 01:10:00+00:00,309.2363,1.39,12.65,47.84626,-54.09684
2018-03-23 01:20:00+00:00,303.6863,1.32,12.81,47.84626,-54.09684
2018-03-23 01:30:00+00:00,329.8963,1.38,12.81,47.84626,-54.09684
2018-03-23 01:40:00+00:00,332.3297,1.39,12.81,47.84626,-54.09684
2018-03-23 01:50:00+00:00,311.113,1.3,12.81,47.84626,-54.09684
2018-03-23 02:00:00+00:00,328.798,1.35,12.73,47.84626,-54.09684
2018-03-23 02:10:00+00:00,351.3146,1.34,12.65,47.84626,-54.09684
2018-03-23 02:20:00+00:00,338.0496,1.34,12.73,47.84626,-54.09684
2018-03-23 02:30:00+00:00,342.4729,1.3,12.73,47.84626,-54.09684
2018-03-23 02:40:00+00:00,353.2446,1.3,12.81,47.84626,-54.09684
2018-03-23 02:50:00+00:00,355.3046,1.3,12.81,47.84626,-54.09684
2018-03-23 03:00:00+00:00,347.378,1.31,12.73,47.84626,-54.09684
2018-03-23 03:10:00+00:00,353.4896,1.3,12.65,47.84626,-54.09684
2018-03-23 03:20:00+00:00,356.7712,1.3,12.73,47.84626,-54.09684
2018-03-23 03:30:00+00:00,344.2614,1.3,12.73,47.84626,-54.09684
2018-03-23 03:40:00+00:00,348.4296,1.3,12.81,47.84626,-54.09684
2018-03-23 03:50:00+00:00,360.7362,1.3,12.81,47.84626,-54.09684
2018-03-23 04:00:00+00:00,354.8813,1.3,12.73,47.84626,-54.09684
2018-03-23 04:10:00+00:00,349.0881,1.3,12.65,47.84626,-54.09684
2018-03-23 04:20:00+00:00,354.5112,1.3,12.73,47.84626,-54.09684
2018-03-23 04:30:00+00:00,345.2781,1.3,12.73,47.84626,-54.09684
2018-03-23 04:40:00+00:00,334.243,1.3,12.73,47.84626,-54.09684
2018-03-23 04:50:00+00:00,346.4047,1.3,12.81,47.84626,-54.09684
2018-03-23 05:00:00+00:00,349.5496,1.3,12.73,47.84626,-54.09684
2018-03-23 05:10:00+00:00,333.1614,1.3,12.65,47.84626,-54.09684
2018-03-23 05:20:00+00:00,327.793,1.3,12.73,47.84626,-54.09684
2018-03-23 05:30:00+00:00,338.4213,1.3,12.73,47.84626,-54.09684
2018-03-23 05:40:00+00:00,321.9913,1.3,12.73,47.84626,-54.09684
2018-03-23 05:50:00+00:00,310.1513,1.29,12.73,47.84626,-54.09684
2018-03-23 06:00:00+00:00,316.1146,1.3,12.73,47.84626,-54.09684
2018-03-23 06:10:00+00:00,308.788,1.3,12.65,47.84626,-54.09684
2018-03-23 06:20:00+00:00,284.7297,1.3,12.73,47.84626,-54.09684
2018-03-23 06:30:00+00:00,285.9147,1.29,12.73,47.84626,-54.09684
2018-03-23 06:40:00+00:00,283.8697,1.27,12.73,47.84626,-54.09684
2018-03-23 06:50:00+00:00,262.8031,1.29,12.73,47.84626,-54.09684
2018-03-23 07:00:00+00:00,250.5714,1.26,12.73,47.84626,-54.09684
2018-03-23 07:10:00+00:00,251.4848,1.23,12.65,47.84626,-54.09684
2018-03-23 07:20:00+00:00,247.5181,1.25,12.73,47.84626,-54.09684
2018-03-23 07:30:00+00:00,236.3614,1.26,12.73,47.84626,-54.09684
2018-03-23 07:40:00+00:00,226.5265,1.2,12.73,47.84626,-54.09684
2018-03-23 07:50:00+00:00,214.6698,1.23,12.73,47.84626,-54.09684
2018-03-23 08:00:00+00:00,211.8831,1.2,12.73,47.84626,-54.09684
2018-03-23 08:10:00+00:00,206.8081,1.21,12.65,47.84626,-54.09684
2018-03-23 08:20:00+00:00,188.0981,1.19,12.73,47.84626,-54.09684
2018-03-23 08:30:00+00:00,183.2632,1.2,12.73,47.84626,-54.09684
2018-03-23 08:40:00+00:00,191.2198,1.2,12.73,47.84626,-54.09684
2018-03-23 08:50:00+00:00,185.5131,1.2,12.73,47.84626,-54.09684
2018-03-23 09:00:00+00:00,178.5148,1.12,12.73,47.84626,-54.09684
2018-03-23 09:10:00+00:00,184.7265,1.15,12.65,47.84626,-54.09684
2018-03-23 09:20:00+00:00,190.7415,1.18,12.73,47.84626,-54.09684
2018-03-23 09:30:00+00:00,183.4581,1.2,12.73,47.84626,-54.09684
2018-03-23 09:40:00+00:00,177.9865,1.2,12.73,47.84626,-54.09684
2018-03-23 09:50:00+00:00,190.4465,1.18,12.73,47.84626,-54.09684
2018-03-23 10:00:00+00:00,197.2081,1.2,12.73,47.84626,-54.09684
2018-03-23 10:10:00+00:00,195.9948,1.2,12.65,47.84626,-54.09684
2018-03-23 10:20:00+00:00,202.4031,1.2,12.73,47.84626,-54.09684
2018-03-23 10:30:00+00:00,208.2164,1.2,12.73,47.84626,-54.09684
2018-03-23 10:40:00+00:00,211.0881,1.2,12.81,47.84626,-54.09684
2018-03-23 10:50:00+00:00,211.9948,1.2,12.81,47.84626,-54.09684
2018-03-23 11:00:00+00:00,214.4381,1.2,12.73,47.84626,-54.09684
2018-03-23 11:10:00+00:00,223.3665,1.2,12.65,47.84626,-54.09684
2018-03-23 11:20:00+00:00,224.5781,1.2,12.81,47.84626,-54.09684
2018-03-23 11:30:00+00:00,230.6548,1.2,12.81,47.84626,-54.09684
2018-03-23 11:40:00+00:00,235.2031,1.2,12.81,47.84626,-54.09684
2018-03-23 11:50:00+00:00,234.6481,1.2,12.81,47.84626,-54.09684
2018-03-23 12:00:00+00:00,234.6265,1.2,12.81,47.84626,-54.09684
2018-03-23 12:10:00+00:00,238.7831,1.2,12.73,47.84626,-54.09684
2018-03-23 12:20:00+00:00,241.7431,1.2,12.81,47.84626,-54.09684
2018-03-23 12:30:00+00:00,245.2497,1.2,12.81,47.84626,-54.09684
2018-03-23 12:40:00+00:00,252.8715,1.2,12.89,47.84626,-54.09684
2018-03-23 12:50:00+00:00,261.5114,1.2,12.89,47.84626,-54.09684
2018-03-23 13:00:00+00:00,269.9197,1.2,12.89,47.84626,-54.09684
2018-03-23 13:10:00+00:00,274.4081,1.2,12.81,47.84626,-54.09684
2018-03-23 13:20:00+00:00,274.7631,1.2,12.89,47.84626,-54.09684
2018-03-23 13:30:00+00:00,285.9863,1.2,12.81,47.84626,-54.09684
2018-03-23 13:40:00+00:00,294.9097,1.2,12.81,47.84626,-54.09684
2018-03-23 13:50:00+00:00,298.553,1.2,12.81,47.84626,-54.09684
2018-03-23 14:00:00+00:00,299.7596,1.2,12.73,47.84626,-54.09684
2018-03-23 14:10:00+00:00,310.8814,1.2,12.81,47.84626,-54.09684
2018-03-23 14:20:00+00:00,311.738,1.2,12.89,47.84626,-54.09684
2018-03-23 14:30:00+00:00,313.2297,1.2,12.81,47.84626,-54.09684
2018-03-23 14:40:00+00:00,315.258,1.2,12.89,47.84626,-54.09684
2018-03-23 14:50:00+00:00,318.2197,1.23,12.89,47.84626,-54.09684
2018-03-23 15:00:00+00:00,320.3096,1.24,12.97,47.84626,-54.09684
2018-03-23 15:10:00+00:00,326.098,1.24,12.81,47.84626,-54.09684
2018-03-23 15:20:00+00:00,330.7247,1.26,12.81,47.84626,-54.09684
2018-03-23 15:30:00+00:00,334.4513,1.26,12.81,47.84626,-54.09684
2018-03-23 15:40:00+00:00,341.5213,1.27,12.81,47.84626,-54.09684
2018-03-23 15:50:00+00:00,343.2747,1.28,12.81,47.84626,-54.09684
2018-03-23 16:00:00+00:00,341.8413,1.28,12.81,47.84626,-54.09684
2018-03-23 16:10:00+00:00,339.5746,1.28,12.81,47.84626,-54.09684
2018-03-23 16:20:00+00:00,339.6946,1.3,12.97,47.84626,-54.09684
2018-03-23 16:30:00+00:00,340.9696,1.29,12.89,47.84626,-54.09684
2018-03-23 16:40:00+00:00,341.0897,1.29,12.89,47.84626,-54.09684
2018-03-23 16:50:00+00:00,340.3162,1.28,12.81,47.84626,-54.09684
2018-03-23 17:00:00+00:00,343.9828,1.28,12.73,47.84626,-54.09684
2018-03-23 17:10:00+00:00,343.8796,1.28,12.81,47.84626,-54.09684
2018-03-23 17:20:00+00:00,339.3812,1.29,12.81,47.84626,-54.09684
2018-03-23 17:30:00+00:00,329.0063,1.29,12.81,47.84626,-54.09684
2018-03-23 17:40:00+00:00,326.8781,1.25,12.81,47.84626,-54.09684
2018-03-23 17:50:00+00:00,322.6597,1.26,12.81,47.84626,-54.09684
2018-03-23 18:00:00+00:00,314.6447,1.27,12.73,47.84626,-54.09684
2018-03-23 18:10:00+00:00,308.748,1.3,12.81,47.84626,-54.09684
2018-03-23 18:20:00+00:00,300.2947,1.3,12.81,47.84626,-54.09684
2018-03-23 18:30:00+00:00,285.0297,1.3,12.81,47.84626,-54.09684
2018-03-23 18:40:00+00:00,278.7031,1.3,12.81,47.84626,-54.09684
2018-03-23 18:50:00+00:00,282.5281,1.3,12.81,47.84626,-54.09684
2018-03-23 19:00:00+00:00,281.5581,1.3,12.73,47.84626,-54.09684
2018-03-23 19:10:00+00:00,262.8114,1.3,12.73,47.84626,-54.09684
2018-03-23 19:20:00+00:00,253.7331,1.3,12.81,47.84626,-54.09684
2018-03-23 19:30:00+00:00,255.3864,1.3,12.81,47.84626,-54.09684
2018-03-23 19:40:00+00:00,248.148,1.3,12.81,47.84626,-54.09684
2018-03-23 19:50:00+00:00,232.6531,1.3,12.81,47.84626,-54.09684
2018-03-23 20:00:00+00:00,225.6481,1.3,12.73,47.84626,-54.09684
2018-03-23 20:10:00+00:00,224.188,1.3,12.65,47.84626,-54.09684
2018-03-23 20:20:00+00:00,220.5631,1.3,12.81,47.84626,-54.09684
2018-03-23 20:30:00+00:00,219.8231,1.3,12.73,47.84626,-54.09684
2018-03-23 20:40:00+00:00,219.6864,1.3,12.81,47.84626,-54.09684
2018-03-23 20:50:00+00:00,215.8697,1.3,12.81,47.84626,-54.09684
2018-03-23 21:00:00+00:00,213.5098,1.3,12.73,47.84626,-54.09684
2018-03-23 21:10:00+00:00,212.9215,1.3,12.65,47.84626,-54.09684
2018-03-23 21:20:00+00:00,214.0815,1.29,12.73,47.84626,-54.09684
2018-03-23 21:30:00+00:00,215.6864,1.27,12.73,47.84626,-54.09684
2018-03-23 21:40:00+00:00,213.3014,1.27,12.73,47.84626,-54.09684
2018-03-23 21:50:00+00:00,210.5331,1.28,12.81,47.84626,-54.09684
2018-03-23 22:00:00+00:00,219.3898,1.3,12.73,47.84626,-54.09684
2018-03-23 22:10:00+00:00,228.4364,1.3,12.65,47.84626,-54.09684
2018-03-23 22:20:00+00:00,230.8281,1.3,12.73,47.84626,-54.09684
2018-03-23 22:30:00+00:00,234.9581,1.3,12.73,47.84626,-54.09684
2018-03-23 22:40:00+00:00,239.2698,1.32,12.73,47.84626,-54.09684
2018-03-23 22:50:00+00:00,240.9664,1.38,12.81,47.84626,-54.09684
2018-03-23 23:00:00+00:00,242.4348,1.4,12.73,47.84626,-54.09684
2018-03-23 23:10:00+00:00,248.3714,1.39,12.65,47.84626,-54.09684
2018-03-23 23:20:00+00:00,248.3381,1.4,12.73,47.84626,-54.09684
2018-03-23 23:30:00+00:00,248.0131,1.4,12.73,47.84626,-54.09684
2018-03-23 23:40:00+00:00,250.3131,1.4,12.73,47.84626,-54.09684
2018-03-23 23:50:00+00:00,254.6864,1.39,12.73,47.84626,-54.09684
